Time+03,TemperatureF,Dew PointF,Humidity,Sea Level PressureIn,VisibilityMPH,Wind Direction,Wind SpeedMPH,Gust SpeedMPH,PrecipitationIn,Events,Conditions,WindDirDegrees,DateUTC
12:00 AM,87.8,62.6,43,29.65,-9999.0,ENE,6.9,-,N/A,,Clear,60,2013-04-18 21:00:00
12:30 AM,86.0,64.4,48,29.65,-9999.0,East,5.8,-,N/A,,Clear,80,2013-04-18 21:30:00
1:00 AM,86.0,64.4,48,29.65,6.2,ENE,4.6,-,N/A,,Scattered Clouds,60,2013-04-18 22:00:00
1:30 AM,87.8,64.4,46,29.68,6.2,NNE,4.6,-,N/A,,Scattered Clouds,20,2013-04-18 22:30:00
2:00 AM,86.0,66.2,51,29.65,6.2,Variable,1.2,-,N/A,,Mostly Cloudy,0,2013-04-18 23:00:00
2:30 AM,86.0,64.4,48,29.68,6.2,SW,9.2,-,N/A,,Mostly Cloudy,230,2013-04-18 23:30:00
3:00 AM,87.8,60.8,40,29.62,6.2,ENE,5.8,-,N/A,,Mostly Cloudy,60,2013-04-19 00:00:00
3:30 AM,86.0,62.6,45,29.65,-9999.0,Variable,2.3,-,N/A,,Clear,0,2013-04-19 00:30:00
4:00 AM,86.0,62.6,45,29.65,-9999.0,Variable,2.3,-,N/A,,Clear,0,2013-04-19 01:00:00
4:30 AM,86.0,62.6,45,29.65,-9999.0,East,4.6,-,N/A,,Clear,90,2013-04-19 01:30:00
5:00 AM,84.2,64.4,51,29.68,-9999.0,Variable,2.3,-,N/A,,Clear,0,2013-04-19 02:00:00
5:30 AM,86.0,66.2,51,29.71,-9999.0,NNW,3.5,-,N/A,,Clear,340,2013-04-19 02:30:00
6:00 AM,86.0,64.4,48,29.71,-9999.0,NE,6.9,-,N/A,,Clear,50,2013-04-19 03:00:00
6:30 AM,86.0,62.6,45,29.74,6.2,West,5.8,-,N/A,Rain,Light Rain,260,2013-04-19 03:30:00
7:00 AM,86.0,66.2,51,29.74,6.2,North,4.6,-,N/A,,Mostly Cloudy,360,2013-04-19 04:00:00
7:30 AM,87.8,64.4,46,29.74,-9999.0,SW,6.9,-,N/A,,Clear,220,2013-04-19 04:30:00
8:00 AM,87.8,64.4,46,29.74,-9999.0,Variable,2.3,-,N/A,,Clear,0,2013-04-19 05:00:00
8:30 AM,89.6,64.4,43,29.74,-9999.0,NE,4.6,-,N/A,,Clear,40,2013-04-19 05:30:00
9:00 AM,91.4,62.6,38,29.74,-9999.0,North,6.9,-,N/A,,Clear,10,2013-04-19 06:00:00
9:30 AM,93.2,62.6,36,29.74,-9999.0,NNE,5.8,-,N/A,,Clear,30,2013-04-19 06:30:00
10:00 AM,95.0,59.0,30,29.74,-9999.0,NNE,5.8,-,N/A,,Clear,30,2013-04-19 07:00:00
11:00 AM,93.2,64.4,38,29.74,6.2,East,8.1,-,N/A,,Scattered Clouds,100,2013-04-19 08:00:00
11:30 AM,91.4,64.4,41,29.74,6.2,ESE,9.2,-,N/A,,Scattered Clouds,110,2013-04-19 08:30:00
12:00 PM,91.4,62.6,38,29.71,6.2,East,8.1,-,N/A,,Scattered Clouds,100,2013-04-19 09:00:00
12:30 PM,91.4,62.6,38,29.74,6.2,East,4.6,-,N/A,,Scattered Clouds,100,2013-04-19 09:30:00
1:00 PM,93.2,62.6,36,29.71,-9999.0,SE,5.8,-,N/A,,Clear,130,2013-04-19 10:00:00
1:30 PM,93.2,62.6,36,29.71,6.2,ENE,8.1,-,N/A,,Scattered Clouds,70,2013-04-19 10:30:00
2:00 PM,93.2,59.0,32,29.71,6.2,NNE,11.5,-,N/A,,Scattered Clouds,30,2013-04-19 11:00:00
2:30 PM,93.2,62.6,36,29.68,-9999.0,NE,11.5,-,N/A,,Clear,40,2013-04-19 11:30:00
3:00 PM,90,70,42,29.68,6,NE,24.6,,,,Scattered Clouds,40,2013-04-19 12:00:00
3:00 PM,89.6,69.8,52,29.68,6.2,NE,12.7,-,N/A,,Partly Cloudy,40,2013-04-19 12:00:00
3:30 PM,89.6,66.2,46,29.65,-9999.0,NNE,10.4,-,N/A,,Clear,30,2013-04-19 12:30:00
4:00 PM,89.6,64.4,43,29.65,-9999.0,NNE,10.4,-,N/A,,Clear,20,2013-04-19 13:00:00
4:30 PM,89.6,64.4,43,29.65,-9999.0,NNE,9.2,-,N/A,,Clear,30,2013-04-19 13:30:00
5:00 PM,87.8,68.0,52,29.68,-9999.0,North,10.4,-,N/A,,Clear,10,2013-04-19 14:00:00
5:30 PM,86.0,66.2,51,29.68,-9999.0,NNE,10.4,-,N/A,,Clear,20,2013-04-19 14:30:00
6:00 PM,86.0,69.8,58,29.68,-9999.0,North,9.2,-,N/A,,Clear,10,2013-04-19 15:00:00
6:30 PM,84.2,68.0,58,29.68,-9999.0,North,8.1,-,N/A,,Clear,10,2013-04-19 15:30:00
7:00 PM,84.2,69.8,62,29.68,-9999.0,North,11.5,-,N/A,,Clear,360,2013-04-19 16:00:00
7:30 PM,82.4,69.8,66,29.68,-9999.0,North,12.7,-,N/A,,Clear,360,2013-04-19 16:30:00
8:00 PM,82.4,71.6,70,29.68,-9999.0,North,13.8,-,N/A,,Clear,360,2013-04-19 17:00:00
8:30 PM,82.4,69.8,66,29.71,-9999.0,North,15.0,-,N/A,,Clear,360,2013-04-19 17:30:00
9:00 PM,83,69,53,29.72,6,North,10.4,,,,Clear,10,2013-04-19 18:00:00
9:00 PM,82.4,68.0,62,29.71,-9999.0,North,10.4,-,N/A,,Clear,10,2013-04-19 18:00:00
10:00 PM,84.2,66.2,55,29.71,-9999.0,North,8.1,-,N/A,,Clear,360,2013-04-19 19:00:00
11:00 PM,84.2,66.2,55,29.68,-9999.0,North,6.9,-,N/A,,Clear,10,2013-04-19 20:00:00